Regional Weather Roundup
Issued by NWS

Home | Current Version | Previous Version | Text Only | Print | Product List | Glossary Off
Versions: 1 2 3 4 5 6 7 8 9 10 11 12 13 14 15 16 17 18 19 20 21 22 23 24 25 26 27 28 29 30 31 32 33 34 35 36 37 38 39 40 41 42 43 44 45 46 47 48 49 50

000
ASUS43 KDTX 221110
RWRMI
MICHIGAN HOURLY REGIONAL WEATHER ROUNDUP
NATIONAL WEATHER SERVICE DETROIT/PONTIAC MI
700 AM EDT SUN APR 22 2018

NOTE: "FAIR" INDICATES FEW OR NO CLOUDS BELOW 12,000 FEET WITH NO
SIGNIFICANT WEATHER AND/OR OBSTRUCTION TO VISIBILITY.

MIZ047>049-052>055-059>063-066>070-074>076-081>083-221200-
SOUTHEAST LOWER MICHIGAN

CITY           SKY/WX    TMP DP  RH WIND       PRES   REMARKS
ADRIAN         MOCLDY    31  25  78 NE6       30.40R WCI  25
ALMA           FAIR      31  31 100 CALM      30.41R FOG
ANN ARBOR      FAIR      29  26  89 CALM      30.41R
BAD AXE        FAIR      32  26  79 CALM      30.41R
CARO           FAIR      28  25  91 CALM      30.41R
DETROIT CITY   FAIR      33  25  72 CALM      30.42R
DETROIT        MOCLDY    36  24  62 CALM      30.42R
FLINT          FAIR      29  26  89 CALM      30.41R
GROSSE ILE     FAIR      33  27  78 CALM      30.41R
HILLSDALE      MOCLDY    34  23  64 E8        30.36F WCI  27
HOWELL         FAIR      31  27  84 CALM      30.40R

CITY           SKY/WX    TMP DP  RH WIND       PRES   REMARKS
JACKSON        FAIR      34  25  69 CALM      30.39R
LAMBERTVILLE   FAIR      34  26  74 CALM      30.40R
LANSING        FAIR      32  28  85 CALM      30.41R
LAPEER         FAIR      28  26  93 CALM      30.42R
MASON          FAIR      32  26  78 CALM      30.41R
MONROE         FAIR      33  23  66 CALM      30.41R
MT. CLEMENS    FAIR      29  29 100 CALM        N/A
PONTIAC        FAIR      31  28  89 CALM      30.40R
PORT HOPE        N/A     31  24  75 CALM      30.40R
PORT HURON     FAIR      27  25  93 CALM      30.42R
TRI CITIES     FAIR      35  28  75 S3        30.41R
MIDLAND        FAIR      29  29 100 CALM      30.41R
TROY           FAIR      34  23  65 CALM      30.44R
SAGINAW HB     FAIR      32  28  86 CALM      30.41R
$$
MIZ043>046-050>051-056>058-064>065-071>073-077>080-221200-
SOUTHWEST LOWER MICHIGAN

CITY           SKY/WX    TMP DP  RH WIND       PRES   REMARKS
BATTLE CREEK   CLOUDY    35  30  82 NE5       30.38S WCI  31
BENTON HARBOR  FAIR      37  31  78 CALM      30.37R
BIG RAPIDS     FAIR      27  22  80 CALM      30.39R
COLDWATER      FAIR      40  21  48 E5        30.36F
FREMONT        FAIR      29  18  61 CALM      30.40R
HOLLAND        FAIR      34  28  79 E5        30.39R WCI  30
GRAND RAPIDS   FAIR      33  25  72 CALM      30.39R
IONIA          FAIR      35  27  75 S3        30.39R
KALAMAZOO      FAIR      41  28  60 NE5       30.38S
LUDINGTON      FAIR      24  22  93 CALM      30.39R
MARSHALL       CLOUDY    34  28  80 CALM      30.38S
MOUNT PLEASANT FAIR      33  31  94 CALM      30.40R
MUSKEGON       FAIR      30  21  69 CALM      30.39R
SOUTH HAVEN    FAIR      37  29  73 CALM      30.37R
$$
MIZ016>042-221200-
NORTHERN LOWER MICHIGAN

CITY           SKY/WX    TMP DP  RH WIND       PRES   REMARKS
ALPENA         FAIR      24  22  91 CALM      30.42R
BEAVER ISLAND  FAIR      28  22  79 CALM      30.41R
BELLAIRE       FAIR      24  22  94 CALM      30.42R
CADILLAC       FAIR      25  20  82 CALM      30.38R
CHARLEVOIX     FAIR      28  23  82 E3        30.43R
FRANKFORT      FAIR      28  22  78 CALM      30.39S
GAYLORD        FAIR      25  21  85 CALM      30.39R
GRAYLING       FAIR      21  19  91 CALM      30.39R
HARBOR SPRINGS FAIR      27  20  76 NE6       30.41R WCI  20
HOUGHTON LAKE  FAIR      26  24  92 CALM      30.39R
MANISTEE       FAIR      27  23  85 E5        30.39R WCI  22
OSCODA         FAIR      22  17  80 CALM      30.41R
PELLSTON       FAIR      22  20  92 CALM      30.42R
ROGERS CITY    FAIR      26  22  84 CALM      30.43R
TRAVERSE CITY  FAIR      28  22  78 CALM      30.39R
$$
MIZ007>008-015-221200-
EASTERN UPPER MICHIGAN

CITY           SKY/WX    TMP DP  RH WIND       PRES   REMARKS
KINROSS        FAIR      28  20  71 CALM      30.41R
MACKINAC ISLAN FAIR      32  16  51 CALM      30.40S
NEWBERRY       FAIR      24  24  97 CALM      30.39R
S. S. MARIE    FAIR      31  22  69 E3        30.40R
MUNISING         N/A     27  22  81 SW6       30.38R WCI  20
$$
MIZ004>006-011>014-085-221200-
CENTRAL UPPER MICHIGAN

CITY           SKY/WX    TMP DP  RH WIND       PRES   REMARKS
MANISTIQUE     FAIR      25  23  94 CALM      30.39S
ESCANABA       FAIR      22  21  96 NW3       30.39R
MENOMINEE      FAIR      28  25  88 CALM      30.39R
SAWYER-GWINN   CLEAR     25  18  74 CALM      30.36S
$$
MIZ001>003-009>011-084-221200-
WESTERN UPPER MICHIGAN

CITY           SKY/WX    TMP DP  RH WIND       PRES   REMARKS
IRON MOUNTAIN  FAIR      26  20  77 W3        30.35R
HOUGHTON       FAIR      28  14  55 E3        30.35R
COPPER HARBOR    N/A     29  18  63 SW5       30.37R WCI  24
IRONWOOD       FAIR      22  19  89 CALM      30.35R
$$

ABBREVIATIONS USED IN REMARKS
   TC - TEMPERATURE IN CELSIUS
  WCI - WIND CHILL INDEX
   HX - HEAT INDEX
  VSB - VISIBILITY





USA.gov is the U.S. government's official web portal to all federal, state and local government web resources and services.